Regional Weather Roundup
Issued by NWS Nashville, TN

Home | Current Version | Previous Version | Text Only | Print | Product List | Glossary On
Versions: 1 2 3 4 5 6 7 8 9 10 11 12 13 14 15 16 17 18 19 20 21 22 23 24 25 26 27 28 29 30 31 32 33 34 35 36 37 38 39 40 41 42 43 44 45 46 47 48 49 50
000
ASUS44 KOHX 261915
RWROHX
MIDDLE TENNESSEE HOURLY WEATHER ROUNDUP
NATIONAL WEATHER SERVICE NASHVILLE TN
200 PM CDT SAT JUL 26 2014

NOTE: "FAIR" INDICATES FEW OR NO CLOUDS BELOW 12,000 FEET WITH
NO SIGNIFICANT WEATHER AND/OR OBSTRUCTIONS TO VISIBILITY.

* THESE REPORTS ARE NOT UNDER NWS QUALITY CONTROL AND MAY NOT
  REPORT WEATHER SUCH AS PRECIPITATION AND FOG.


TNZ005>011-023>034-057-059-062>066-078-080-262000
...NORTHERN MIDDLE TENNESSEE...

CITY           SKY/WX    TMP DP  RH WIND       PRES   REMARKS
CLARKSVILLE    SUNNY     91  71  51 S10       29.95F HX  97
CROSSVILLE     MOSUNNY   81  62  52 SW5       30.08F
GALLATIN         N/A     93  65  39 W8        30.00F HX  95
DICKSON        SUNNY     88  72  58 S13       30.00F HX  94
LEBANON        MOSUNNY   89  64  43 SW10      29.98F HX  90
LIVINGSTON     MOSUNNY   83  66  56 SW8       30.03F
NASHVILLE      MOSUNNY   89  67  47 SW9       29.99F HX  92
WEST NASHVILLE   N/A     90  66  45 W7        29.98F HX  92
PORTLAND       MOSUNNY   90  66  45 SW9       29.98F HX  92
SMYRNA         SUNNY     93  68  44 VRB6      30.00F HX  97
SPARTA         SUNNY     88  70  55 SW7       30.03F HX  92
$$
TNZ056-058-060-061-075>077-079-093>097-262000
...SOUTHERN MIDDLE TENNESSEE...

CITY           SKY/WX    TMP DP  RH WIND       PRES   REMARKS
COLUMBIA       MOSUNNY   90  73  58 VRB7      30.00F HX  98
FAYETTEVILLE   SUNNY     84  64  51 VRB5      30.04S
LEWISBURG      MOSUNNY   90  66  44 SW6       30.01F HX  92
MCMINNVILLE    SUNNY     86  70  58 VRB5      30.03F HX  90
MURFREESBORO   SUNNY     88  64  44 SW7       30.00
SHELBYVILLE    SUNNY     88  70  55 S7        30.02F HX  92
TULLAHOMA      SUNNY     84  64  51 VRB5      30.04F
WINCHESTER     SUNNY     84  66  54 CALM      30.05S
$$


...KEY TO REMARKS...
VSB - VISIBILITY IN MILES
WCI - WIND CHILL INDEX
HX  - HEAT INDEX



USA.gov is the U.S. government's official web portal to all federal, state and local government web resources and services.